Tracking 29511 objects as of 15-Sep-2024
HD Live streaming from Space Station
objects crossing your sky now

PAINANI-2

Track PAINANI-2 now!
10-day predictions


NORAD ID: 48928
Int'l Code: 2021-059BB
Perigee: 366.6 km
Apogee: 367.8 km
Inclination: 97.6 °
Period: 91.7 minutes
Semi major axis: 6738 km
RCS: Unknown
Launch date: June 30, 2021
Source: Mexico (MEX)
Launch site: AIR FORCE EASTERN TEST RANGE (AFETR)
Your satellite tracking list
Your tracking list is empty




NASA's NSSDC Master Catalog

Two Line Element Set (TLE):
1 48928U 21059BB  24258.87246174  .00211841  00000-0  17537-2 0  9990
2 48928  97.6407  59.3691 0000874 100.5391 259.5969 15.69600992179477
Source of the keplerian elements: AFSPC